Indianapolis Mount Comfort, IN

5:58 AM EST on December 13, 2019 (GMT -0500)
Mount Comfort

Weather History for KMQJ - May, 2019

Change the Weather History Date:

Wednesday, May 15, 2019

  Actual Average (WUND) Record (WUND)
Temperature  
Mean Temperature 58 °F -  
Max Temperature 71 °F - - (-1)
Min Temperature 44 °F - - (-1)
Degree Days  
Heating Degree Days 8    
Growing Degree Days 8 (Base 50)    
Moisture  
Dew Point 51 °F    
Average Humidity 79    
Maximum Humidity 100    
Minimum Humidity 53    
Precipitation  
Precipitation 0.00 in - - ()
Sea Level Pressure  
Sea Level Pressure 30.00 in    
Wind  
Wind Speed 2 mph (SSW)    
Max Wind Speed 10 mph    
Max Gust Speed 17 mph    
Visibility 10 miles    
Events      
Averages and records for this station are not official NWS values.
T = Trace of Precipitation, MM = Missing Value Source: NWS Daily Summary

Daily Weather History Graph

Daily Weather History Graph

Search for Another Location

Airport or City:

Astronomy

May. 15, 2019 Rise Set
Actual Time 6:28 AM EDT 8:51 PM EDT
Civil Twilight 5:58 AM EDT 9:22 PM EDT
Nautical Twilight 5:20 AM EDT 9:59 PM EDT
Astronomical Twilight 4:39 AM EDT 10:41 PM EDT
Moon 5:21 PM EDT (5/15) 4:53 AM EDT (5/15)
Length of Visible Light 15h 23m
Length of Day
14h 22m
Waxing Gibbous, 87% of the Moon is Illuminated
May 15
Waxing Gibbous
May 18
Full
May 26
Last Quarter
Jun 3
New
Jun 10
First Quarter

Hourly Weather History & Observations

Time (EDT) Temp. Windchill Dew Point Humidity Pressure Visibility Wind Dir Wind Speed Gust Speed Precip Events Conditions
12:15 AM 50.0 °F - 48.2 °F 94% 30.03 in 10.0 mi Calm Calm - N/A   Clear
12:37 AM 46.4 °F - 46.4 °F 100% 30.03 in 10.0 mi Calm Calm - N/A   Clear
12:55 AM 48.2 °F - 46.4 °F 93% 30.02 in 10.0 mi Calm Calm - N/A   Clear
1:16 AM 46.4 °F - 46.4 °F 100% 30.02 in 10.0 mi Calm Calm - N/A   Clear
1:35 AM 46.4 °F - 46.4 °F 100% 30.02 in 10.0 mi Calm Calm - N/A   Clear
1:55 AM 46.4 °F - 46.4 °F 100% 30.02 in 10.0 mi Calm Calm - N/A   Clear
2:15 AM 46.4 °F 45.2 °F 46.4 °F 100% 30.02 in 10.0 mi SSW 3.5 mph - N/A   Clear
2:35 AM 46.4 °F - 46.4 °F 100% 30.01 in 10.0 mi Calm Calm - N/A   Clear
2:55 AM 44.6 °F - 44.6 °F 100% 30.01 in 10.0 mi Calm Calm - N/A   Clear
3:15 AM 46.4 °F - 46.4 °F 100% 30.00 in 10.0 mi Calm Calm - N/A   Clear
3:36 AM 46.4 °F - 46.4 °F 100% 30.00 in 10.0 mi Calm Calm - N/A   Scattered Clouds
3:55 AM 44.6 °F - 44.6 °F 100% 30.00 in 10.0 mi Calm Calm - N/A   Scattered Clouds
4:15 AM 44.6 °F - 44.6 °F 100% 29.99 in 10.0 mi Calm Calm - N/A   Scattered Clouds
4:35 AM 44.6 °F - 44.6 °F 100% 29.99 in 10.0 mi Calm Calm - N/A   Mostly Cloudy
4:55 AM 46.4 °F - 46.4 °F 100% 29.99 in 10.0 mi Calm Calm - N/A   Mostly Cloudy
5:15 AM 44.6 °F - 44.6 °F 100% 30.00 in 10.0 mi Calm Calm - N/A   Scattered Clouds
5:35 AM 44.6 °F 43.1 °F 44.6 °F 100% 29.99 in 10.0 mi SSE 3.5 mph - N/A   Mostly Cloudy
5:55 AM 44.6 °F - 44.6 °F 100% 29.99 in 10.0 mi Calm Calm - N/A   Scattered Clouds
6:16 AM 44.6 °F - 44.6 °F 100% 29.99 in 10.0 mi Calm Calm - N/A   Mostly Cloudy
6:35 AM 44.6 °F 43.1 °F 44.6 °F 100% 29.99 in 10.0 mi SSE 3.5 mph - N/A   Scattered Clouds
6:55 AM 44.6 °F - 44.6 °F 100% 29.99 in 10.0 mi Calm Calm - N/A   Scattered Clouds
7:15 AM 44.6 °F - 44.6 °F 100% 30.00 in 10.0 mi Calm Calm - N/A   Scattered Clouds
7:35 AM 48.2 °F - 48.2 °F 100% 30.01 in 10.0 mi Calm Calm - N/A   Mostly Cloudy
7:56 AM 51.8 °F - 50.0 °F 94% 30.01 in 10.0 mi Calm Calm - N/A   Mostly Cloudy
8:15 AM 53.6 °F - 50.0 °F 88% 30.01 in 10.0 mi Calm Calm - N/A   Scattered Clouds
8:36 AM 53.6 °F - 51.8 °F 94% 30.01 in 10.0 mi Calm Calm - N/A   Mostly Cloudy
8:55 AM 55.4 °F - 51.8 °F 88% 30.02 in 10.0 mi Calm Calm - N/A   Mostly Cloudy
9:15 AM 57.2 °F - 51.8 °F 82% 30.02 in 10.0 mi SSW 3.5 mph - N/A   Mostly Cloudy
9:35 AM 59.0 °F - 51.8 °F 77% 30.02 in 10.0 mi South 3.5 mph - N/A   Overcast
9:55 AM 60.8 °F - 51.8 °F 72% 30.03 in 10.0 mi SSW 3.5 mph - N/A   Mostly Cloudy
10:15 AM 62.6 °F - 53.6 °F 72% 30.02 in 10.0 mi WSW 4.6 mph - N/A   Scattered Clouds
10:35 AM 64.4 °F - 51.8 °F 64% 30.02 in 10.0 mi SW 5.8 mph - N/A   Mostly Cloudy
10:55 AM 66.2 °F - 53.6 °F 64% 30.02 in 10.0 mi SSW 5.8 mph - N/A   Scattered Clouds
11:15 AM 66.2 °F - 53.6 °F 64% 30.02 in 10.0 mi WSW 5.8 mph - N/A   Clear
11:35 AM 68.0 °F - 53.6 °F 60% 30.02 in 10.0 mi WSW 6.9 mph - N/A   Scattered Clouds
11:56 AM 68.0 °F - 51.8 °F 56% 30.02 in 10.0 mi WSW 9.2 mph - N/A   Scattered Clouds
12:15 PM 68.0 °F - 51.8 °F 56% 30.02 in 10.0 mi SSW 10.4 mph 17.3 mph N/A   Mostly Cloudy
12:35 PM 68.0 °F - 51.8 °F 56% 30.02 in 10.0 mi WSW 10.4 mph - N/A   Scattered Clouds
12:55 PM 68.0 °F - 51.8 °F 56% 30.02 in 10.0 mi South 5.8 mph 16.1 mph N/A   Mostly Cloudy
1:15 PM 68.0 °F - 51.8 °F 56% 30.01 in 10.0 mi SW 8.1 mph - N/A   Mostly Cloudy
1:35 PM 68.0 °F - 51.8 °F 56% 30.01 in 10.0 mi SW 4.6 mph - N/A   Mostly Cloudy
1:55 PM 69.8 °F - 53.6 °F 56% 30.00 in 10.0 mi WSW 6.9 mph - N/A   Mostly Cloudy
2:15 PM 68.0 °F - 53.6 °F 60% 30.00 in 10.0 mi North - - N/A   Scattered Clouds
2:35 PM 69.8 °F - 53.6 °F 56% 30.00 in 10.0 mi SSW 6.9 mph - N/A   Mostly Cloudy
2:55 PM 71.6 °F - 53.6 °F 53% 30.00 in 10.0 mi WSW 10.4 mph - N/A   Mostly Cloudy
3:15 PM 69.8 °F - 55.4 °F 60% 29.99 in 10.0 mi SW 6.9 mph - N/A   Mostly Cloudy
3:35 PM 68.0 °F - 53.6 °F 60% 29.99 in 10.0 mi Calm Calm - N/A   Overcast
3:55 PM 69.8 °F - 53.6 °F 56% 29.99 in 10.0 mi Calm Calm - N/A   Overcast
4:15 PM 69.8 °F - 53.6 °F 56% 29.98 in 10.0 mi South 3.5 mph - N/A   Overcast
4:35 PM 69.8 °F - 55.4 °F 60% 29.97 in 10.0 mi SSW 4.6 mph - N/A   Overcast
4:55 PM 69.8 °F - 55.4 °F 60% 29.97 in 10.0 mi SW 9.2 mph - N/A   Mostly Cloudy
5:15 PM 68.0 °F - 55.4 °F 64% 29.97 in 10.0 mi SW 4.6 mph - N/A   Mostly Cloudy
5:35 PM 68.0 °F - 55.4 °F 64% 29.98 in 10.0 mi SW 8.1 mph - N/A   Overcast
5:55 PM 68.0 °F - 55.4 °F 64% 29.97 in 10.0 mi SSW 5.8 mph - N/A   Overcast
6:15 PM 68.0 °F - 55.4 °F 64% 29.97 in 10.0 mi SSW 6.9 mph - N/A   Overcast
6:35 PM 68.0 °F - 55.4 °F 64% 29.97 in 10.0 mi SW 6.9 mph - N/A   Mostly Cloudy
6:55 PM 68.0 °F - 55.4 °F 64% 29.97 in 10.0 mi SW 8.1 mph - N/A   Scattered Clouds
7:15 PM 69.8 °F - 57.2 °F 64% 29.96 in 10.0 mi SW 6.9 mph - N/A   Clear
7:35 PM 69.8 °F - 57.2 °F 64% 29.96 in 10.0 mi SW 6.9 mph - N/A   Scattered Clouds
7:55 PM 68.0 °F - 57.2 °F 68% 29.96 in 10.0 mi SSW 8.1 mph - N/A   Scattered Clouds
8:15 PM 68.0 °F - 57.2 °F 68% 29.96 in 10.0 mi SW 4.6 mph - N/A   Mostly Cloudy
8:35 PM 66.2 °F - 57.2 °F 73% 29.96 in 10.0 mi SW 5.8 mph - N/A   Overcast
8:55 PM 64.4 °F - 55.4 °F 73% 29.97 in 10.0 mi SSW 5.8 mph - N/A   Mostly Cloudy
9:15 PM 62.6 °F - 57.2 °F 82% 29.98 in 10.0 mi SSW 3.5 mph - N/A   Scattered Clouds
9:36 PM 62.6 °F - 55.4 °F 77% 29.98 in 10.0 mi SSW 4.6 mph - N/A   Scattered Clouds
9:55 PM 62.6 °F - 55.4 °F 77% 29.98 in 10.0 mi SSW 4.6 mph - N/A   Scattered Clouds
10:15 PM 60.8 °F - 55.4 °F 82% 29.99 in 10.0 mi South 4.6 mph - N/A   Clear
10:35 PM 60.8 °F - 55.4 °F 82% 29.99 in 10.0 mi South 4.6 mph - N/A   Clear
10:55 PM 59.0 °F - 55.4 °F 88% 29.99 in 10.0 mi South 4.6 mph - N/A   Clear
11:15 PM 59.0 °F - 55.4 °F 88% 29.99 in 10.0 mi South 4.6 mph - N/A   Clear
11:35 PM 59.0 °F - 55.4 °F 88% 29.99 in 10.0 mi South 5.8 mph - N/A   Clear
11:55 PM 57.2 °F - 55.4 °F 94% 29.99 in 10.0 mi South 5.8 mph - N/A   Clear